Welcome to the New NWS' Forecast!
Most changes are behind the scenes, but click here for differences you might notice.
Latest weather observations around

Everett Snohomish County (KPAE)

Using English Units (Switch to International System of Units)
Date/ Time (PST) Wind (mph) Vis. (mi) Weather Sky Cond. Temp (°F) Rel. Humidity Wind Chill (°F) Heat Index (°F) Pressure Precip. (in)
Air Dwpt 6 hour Altimeter (inHg) Sea level (inHg) 1 hr 3 hr 6 hr
Max Min
Nov 22 05:53 SE 10 10 Cloudy BKN024 OVC032 58 57     97%     29.97 29.96      
Nov 22 04:53 SSE 13 10 Cloudy SCT008 BKN025 OVC033 58 57     97%     29.96 29.96 0    
Nov 22 04:50 SSE 16 10 Cloudy SCT008 BKN025 OVC033 57 57     100%     29.96   0    
Nov 22 03:53 SE 15 5 Fog/Mist FEW006 BKN012 OVC021 58 57     97%     29.96 29.96 0   0
Nov 22 03:51 SSE 16 5 Fog/Mist FEW006 BKN014 OVC023 57 57     100%     29.96   0    
Nov 22 03:29 SE 11 3 Light Rain and Fog/Mist SCT007 BKN024 OVC032 58 57     97%     29.95   0    
Nov 22 03:10 SE 13 3 Light Rain and Fog/Mist FEW007 BKN011 OVC028 58 57     97%     29.95   0    
Nov 22 02:53 SE 11 10 Cloudy BKN009 OVC016 58 57     97%     29.96 29.96 0    
Nov 22 02:43 SE 14 5 Light Rain and Fog/Mist FEW008 BKN015 OVC019 58 57     97%     29.96   0    
Nov 22 02:23 SE 11 10 Light Rain SCT010 OVC015 58 57     97%     29.96   0    
Nov 22 02:09 SSE 14 10 Cloudy BKN008 OVC013 58 56     93%     29.96        
Nov 22 01:53 SE 14 6 Fog/Mist OVC010 57 56     96%     29.95 29.95 0    
Nov 22 00:53 SE 10 7 Light Rain BKN008 OVC033 57 57     100%     29.95 29.95 0 0  
Nov 22 00:25 SSE 14 9 Cloudy BKN008 OVC040 57 56     96%     29.95        
Nov 21 23:53 SE 15 9 Cloudy SCT006 BKN050 OVC065 56 56     100%     29.95 29.95 0    
Nov 21 22:53 SE 13 10 Light Rain BKN007 OVC013 57 56     96%     29.94 29.94 0    
Nov 21 21:53   10 Light Rain OVC006 57 56     96%     29.92 29.93 0   0
Nov 21 21:00   5 Light Rain and Fog/Mist BKN008 OVC012 57 56     96%     29.9   0    
Nov 21 20:53   7 Light Rain OVC010 57 56     96%     29.9 29.9 0    
Nov 21 20:21 SE 17 3 Light Rain and Fog/Mist BKN009 OVC013 57 56     96%     29.87   0    
Nov 21 20:00 SE 16 10 Cloudy OVC012 57 55     93%     29.88        
Nov 21 19:53 SE 15 10 Cloudy BKN008 BKN014 OVC029 57 55     93%     29.88 29.88 0    
Nov 21 18:53 SE 18 4 Light Rain and Fog/Mist BKN008 BKN017 OVC023 56 55     97%     29.87 29.87 0 0  
Nov 21 17:53 SE 16 5 Light Rain and Fog/Mist BKN008 OVC022 56 55     97%     29.85 29.86 0    
Nov 21 17:07 SE 15 8 Light Rain BKN008 OVC022 55 53     93%     29.86   0    
Nov 21 17:00 SE 11 7 Light Rain BKN024 OVC029 54 53     97%     29.86   0    
Nov 21 16:53 SE 13 9 Cloudy BKN008 BKN022 OVC027 54 53     97%     29.85 29.86 0    
Nov 21 16:18 SE 13 5 Fog/Mist BKN005 BKN022 OVC030 53 53     100%     29.85   0    
Nov 21 15:53 ESE 13 1.5 Light Rain and Fog/Mist FEW006 BKN024 OVC030 53 52     96%     29.84 29.84 0   0
Nov 21 15:38 ESE 16 1.5 Light Rain and Fog/Mist SCT022 OVC030 53 52     96%     29.84   0    
Nov 21 15:00 ESE 15 4 Light Rain and Fog/Mist SCT010 OVC036 54 52     93%     29.83   0    
Nov 21 14:53 ESE 13 2.5 Light Rain and Fog/Mist BKN010 BKN046 OVC060 54 52     93%     29.82 29.83 0    
Nov 21 13:53 ESE 11 2.5 Light Rain and Fog/Mist BKN010 BKN046 OVC060 52 51     97%     29.83 29.84 0    
Nov 21 12:53 ESE 7 2.5 Light Rain and Fog/Mist BKN003 BKN027 OVC038 49 48     97% 46   29.86 29.87 0 0  
Nov 21 11:53 Calm 1 Light Rain and Fog/Mist BKN003 OVC021 44 44     100%     29.9 29.91 0    
Nov 21 11:42 SW 5 0.75 Rain and Fog/Mist BKN003 BKN021 OVC034 46 45     96% 44   29.91   0    
Nov 21 11:34 5 0.5 Light Rain and Fog SCT003 BKN021 OVC034 46 45     96% 44   29.9   0    
Nov 21 10:53 SE 6 0.5 Light Rain and Fog BKN003 OVC024 45 44     97% 42   29.93 29.94 0    
Nov 21 10:50 5 0.5 Rain and Fog BKN003 OVC024 45 45     100% 42   29.94   0    
Nov 21 09:53 ESE 6 2 Light Rain and Fog/Mist BKN006 BKN018 OVC025 43 42     97% 39   29.95 29.96 0   0
Nov 21 09:27 SSE 6 4 Light Rain and Fog/Mist FEW008 BKN017 OVC025 42 41     96% 38   29.95   0    
Nov 21 08:58 3 5 Light Rain and Fog/Mist BKN025 OVC032 42 40     92% 40   29.93   0    
Nov 21 08:53 E 6 5 Light Rain and Fog/Mist SCT025 BKN030 OVC037 41 40     96% 37   29.94 29.95 0    
Nov 21 08:15 Calm 5 Light Rain and Fog/Mist BKN026 OVC031 41 39     93%     29.95   0    
Nov 21 07:53 ENE 5 6 Light Rain and Fog/Mist BKN030 OVC050 41 39     93% 38   29.95 29.96 0    
Nov 21 06:53 E 8 8 Light Rain OVC034 41 38     89% 36   29.98 29.99 0 0  
Nov 21 05:53 E 5 10 Light Rain OVC040 41 36     82% 38   29.99 30 0    
Nov 21 04:53 ENE 7 10 Cloudy FEW070 OVC095 41 36     82% 36   29.98 29.99      
Nov 21 03:53 E 9 10 Cloudy BKN090 OVC110 41 36     82% 35   30.01 30.01      
Nov 21 02:53 E 8 10 Clear CLR 40 36     86% 34   30.03 30.03      
Nov 21 01:53 E 6 10 Clear CLR 40 36     86% 36   30.03 30.03      
Nov 21 00:53 E 8 10 Clear CLR 40 37     89% 34   30.04 30.05      
Nov 20 23:53 E 7 10 Clear CLR 39 37     93% 34   30.06 30.07      
Nov 20 22:53 E 9 10 Clear CLR 40 37     89% 34   30.07 30.07      
Nov 20 21:53 E 8 10 Clear CLR 40 37     89% 34   30.07 30.08     0
Nov 20 20:53 E 6 10 Clear CLR 41 38     89% 37   30.05 30.06      
Nov 20 19:53 E 6 10 Mostly Clear FEW050 43 37     79% 39   30.03 30.03      
Nov 20 18:53 E 5 10 Mostly Cloudy BKN043 44 38     79% 41   30.01 30.01   0  
Nov 20 17:53 SE 5 10 Cloudy OVC048 44 39     82% 41   29.99 29.99 0    
Nov 20 16:53 ESE 5 10 Light Rain OVC047 46 35     65% 44   29.96 29.96 0    
Nov 20 15:53 NE 3 10 Light Rain OVC041 46 39     76% 45   29.92 29.93 0   0
Nov 20 14:53 NW 7 10 Cloudy OVC035 46 39     76% 42   29.87 29.88      
Nov 20 14:30 NW 6 10 Cloudy OVC031 46 38     73% 43   29.86        
Nov 20 13:53 NW 10 10 Cloudy OVC028 46 39     76% 41   29.83 29.84      
Nov 20 12:53 NW 8 10 Cloudy BKN015 OVC021 47 43     86% 43   29.79 29.79   0  
Nov 20 12:25 NW 5 10 Mostly Cloudy BKN015 BKN019 BKN065 48 44     86% 46   29.77        
Nov 20 11:53 W 5 10 Cloudy FEW010 BKN031 OVC055 48 43     83% 46   29.74 29.75      
Nov 20 10:53 WSW 8 10 Cloudy OVC003 46 45     96% 42   29.71 29.71 0    
Nov 20 10:02 WNW 6 2 Light Rain and Fog/Mist BKN002 BKN060 OVC090 46 46     100% 43   29.66   0    
Nov 20 09:55 WNW 6 10 Light Rain SCT004 BKN008 OVC090 46 46     100% 43   29.66   0    
Nov 20 09:53 WNW 6 2 Light Rain and Fog/Mist BKN002 BKN060 OVC090 46 45     96% 43   29.66 29.66 0   0
Nov 20 09:51 WNW 7 2 Light Rain and Fog/Mist BKN002 BKN060 OVC090 46 45     93% 43   29.65   0    
Nov 20 09:00 N 6 10 Cloudy BKN001 BKN045 OVC050 46 46     100% 43   29.58   0    
Nov 20 08:53 N 7 2 Light Rain and Fog/Mist FEW001 BKN044 OVC050 46 45     96% 42   29.58 29.59 0    
Nov 20 07:53 NW 8 2 Light Rain and Fog/Mist FEW002 OVC048 46 45     96% 42   29.54 29.54 0    
Nov 20 07:21 WSW 9 1.5 Rain and Fog/Mist BKN004 OVC010 46 45     96% 41   29.53   0    
Nov 20 07:14 SW 10 1.75 Rain and Fog/Mist SCT004 BKN008 OVC013 46 45     96% 41   29.53   0    
Nov 20 06:53 Calm 1.75 Heavy Rain and Fog/Mist FEW008 OVC012 47 46     97%     29.52 29.52 0 0  
Nov 20 06:49 WSW 6 2.5 Light Rain and Fog/Mist OVC012 46 46     100% 43   29.52   0    
Nov 20 06:45 W 3 3 Light Rain and Fog/Mist FEW006 OVC014 47 47     100% 46   29.51   0    
Nov 20 06:29 Calm 1.5 Rain and Fog/Mist FEW006 OVC010 47 47     100%     29.51   0    
Nov 20 06:15 Calm 2.5 Light Rain and Fog/Mist OVC012 47 46     97%     29.52   0    
Nov 20 05:53 Calm 4 Light Rain and Fog/Mist OVC012 48 47     96%     29.52 29.52 0    
Nov 20 05:40 Calm 2.5 Light Rain and Fog/Mist OVC012 48 47     96%     29.52   0    
Nov 20 05:18 SE 5 6 Fog/Mist SCT006 OVC012 47 46     97% 45   29.53        
Nov 20 05:09 Calm 6 Fog/Mist BKN007 OVC014 47 47     100%     29.53        
Nov 20 04:53 Calm 6 Fog/Mist SCT005 OVC014 48 47     96%     29.53 29.53      
Nov 20 03:53 ESE 11 4 Fog/Mist FEW005 BKN010 OVC014 47 46     97% 42   29.54 29.55     0
Nov 20 03:27 SE 14 5 Fog/Mist BKN007 OVC011 47 46     97% 41   29.56        
Nov 20 03:12 ESE 11 5 Fog/Mist SCT006 OVC013 47 46     97% 42   29.56        
Nov 20 03:04 ESE 9 6 Fog/Mist OVC013 47 45     93% 43   29.56        
Nov 20 02:55 ESE 14 6 Fog/Mist FEW010 BKN015 OVC025 47 45     93% 41   29.57        
Nov 20 02:53 ESE 14 6 Fog/Mist BKN013 BKN017 OVC025 47 45     93% 41   29.57 29.57      
Nov 20 02:31 SE 16 8 Cloudy FEW005 BKN017 OVC025 46 45     96% 39   29.58        
Nov 20 01:53 ESE 13 6 Fog/Mist BKN008 OVC012 45 44     97% 39   29.58 29.58      
Nov 20 00:53 ESE 13 7 Cloudy BKN007 OVC013 44 43     96% 38   29.6 29.6   0  
Nov 20 00:46 ESE 8 7 Cloudy BKN008 OVC013 44 43     96% 40   29.6        
Nov 20 00:35 ESE 8 8 Cloudy BKN010 OVC013 44 43     96% 40   29.6        
Nov 19 23:53 ESE 8 10 Cloudy OVC008 43 42     97% 38   29.61 29.62 0    
Nov 19 23:46 ESE 10 8 Cloudy OVC008 43 42     97% 37   29.61   0    
Nov 19 22:53 ESE 14 10 Light Rain OVC012 43 41     93% 36   29.61 29.61 0    
Nov 19 22:48 ESE 13 10 Cloudy BKN012 OVC017 43 41     93% 36   29.61        
Nov 19 21:53 ESE 14 9 Cloudy FEW010 OVC022 42 40     92% 35   29.62 29.62 0   0
Nov 19 20:53 ESE 9 10 Cloudy BKN015 BKN020 OVC025 41 38     89% 35   29.62 29.62 0    
Nov 19 20:07 E 6 10 Light Rain FEW020 OVC027 41 38     89% 37   29.64   0    
Nov 19 19:53 7 10 Light Rain FEW016 OVC031 41 38     89% 36   29.64 29.65 0    
Nov 19 18:53 SE 14 10 Light Rain FEW022 OVC037 41 38     89% 33   29.66 29.67 0 0  
Nov 19 17:53 SE 15 7 Light Rain FEW023 OVC035 42 37     82% 35   29.69 29.7 0    
Nov 19 16:53 SE 16 5 Light Rain OVC038 43 37     79% 35   29.7 29.7 0    
Nov 19 15:53   6 Light Rain BKN036 BKN055 OVC085 43 38     82%     29.7 29.71 0   0
Nov 19 14:53   4 Light Rain BKN039 BKN055 OVC075 44 37     76%     29.73 29.73 0    
Nov 19 13:53   10 Light Rain OVC045 47 35     63%     29.76 29.77 0    
Nov 19 12:53 SE 13 10 Cloudy OVC047 49 33     54% 44   29.76 29.76      
Nov 19 11:53   10 Cloudy BKN055 OVC070 48 31     51%     29.8 29.8      
Nov 19 10:53   10 Mostly Cloudy FEW050 BKN065 48 31     51%     29.84 29.85      
Nov 19 09:53   10 Cloudy OVC055 47 31     53%     29.87 29.88      
Nov 19 08:53 SE 14 10 Cloudy SCT030 OVC036 45 29     53% 39   29.91 29.92      
Nov 19 08:24 ESE 13 10 Cloudy OVC030 44 29     55% 38   29.93        
Nov 19 08:12 SE 16 10 Cloudy BKN028 BKN037 OVC047 44 30     58% 37   29.93        
Nov 19 07:53 SE 13 10 Cloudy FEW039 BKN047 OVC060 44 30     58% 38   29.94 29.94      
Nov 19 06:53 SE 15 10 Mostly Cloudy FEW044 BKN060 44 31     60% 37   29.96 29.97      
Nov 19 05:53 SE 17 10 Cloudy OVC038 44 33     65% 36   29.97 29.98      
Jun 11 21:53 5 10 Clear CLR 56 49     77%     30 30      
Jun 11 20:53 NW 5 10 Clear   58 48     70%     30 29.99      
Jun 11 19:53 NW 6 10 Clear   63 45     52%     30 29.99      
Jun 11 11:53 WSW 7 10 Clear CLR 59 51     75%     30.05 30.05      
Jun 10 23:53 N 6 10 Clear   54 48     80%     29.95 29.95      
Jun 10 16:53 NW 7 10 Clear CLR 61 43     52%     29.87 29.87      
Notice The following observation data may not be complete
Jun 10 02:39   10 Cloudy BKN015 OVC080          %              
Jun 10 01:48   10 Cloudy FEW016 BKN070 OVC085 52 46     82%     29.87        
Jun 09 11:10 Calm 10 Cloudy FEW025 BKN031 OVC080 55 46     72%     29.89        
Jun 09 06:53 ESE 9 10 Cloudy OVC055 50 46     86% 46   29.91 29.91      
Jun 09 02:53 SSE 8 10 Mostly Cloudy BKN070 51 45     79%     29.95 29.94      
Jun 08 07:29 SSE 8 8 Light Rain SCT004 BKN009 BKN045 56 54     93%     29.64   0    
Jun 06 05:53 WNW 3 10 Clear CLR 52 48     86%     30.03 30.02      
Jun 05 22:53 5 10 Clear CLR 53 47     80%     30.08 30.08      
Jun 05 18:53 NW 7 10 Clear CLR 65 47     52%     30.07 30.07